Weather Roundup
Issued by NWS Chicago, IL

Current Version | Previous Version | Text Only | Print | Product List | Glossary On
Versions: 1 2 3 4 5 6 7 8 9 10 11 12 13 14 15 16 17 18 19 20 21 22 23 24 25 26 27 28 29 30 31 32 33 34 35 36 37 38 39 40 41 42 43 44 45 46 47 48 49 50
000
NZUS59 KLOT 240509
HRRLOT

CHICAGO AREA WEATHER ROUNDUP
NATIONAL WEATHER SERVICE CHICAGO/ROMEOVILLE IL
1200 AM CDT SUN JUL 24 2016

NOTE: "FAIR" INDICATES FEW OR NO CLOUDS BELOW 12,000 FEET WITH NO
SIGNIFICANT WEATHER AND/OR OBSTRUCTIONS TO VISIBILITY.

* THESE STATIONS ARE NOT UNDER NWS QUALITY CONTROL. THEY ALSO MAY NOT
  REPORT WEATHER SUCH AS PRECIPITATION OR FOG.

ILZ005-006-012>014-019>023-240600-
NORTHEAST ILLINOIS

CITY           SKY/WX    TMP DP  RH WIND       PRES   REMARKS
OHARE          TSTM      71  70  96 S8        29.99S
MIDWAY         TSTM      73  70  90 S7        30.00S
AURORA         LGT RAIN  73  71  93 E6        29.96F FOG
LANSING*       TSTM      70  69  96 SW6       30.04R
JOLIET*        RAIN      73  72  96 CALM      29.98R
WAUKEGAN       LGT RAIN  71  68  90 S9        29.96F
DUPAGE AIRPORT LGT RAIN  71  68  90 E9        29.96F
WHEELING       LGT RAIN  71  69  93 S8        29.99R
MORRIS*        RAIN      71  69  95 SE3       29.94F
LEWIS AIRPORT* RAIN      71  69  94 E9        29.98F
NORTHERLY ISL    N/A     70  68  93 SW3         N/A
$$

WIZ051-052-058>065-066-070>072-240600-
SOUTHEAST WISCONSIN

CITY           SKY/WX    TMP DP  RH WIND       PRES   REMARKS
MILWAUKEE      LGT RAIN  73  69  87 S12       29.92F
KENOSHA*       LGT RAIN  72  69  90 S10       29.96F
RACINE*        LGT RAIN  72  68  87 S12       29.96S
BURLINGTON     CLOUDY    70  69  96 S8G16     29.94S
WAUKESHA       CLOUDY    70  68  94 S8        29.94S
$$

INZ001>003-010>013-019-020-240600-
NORTHWEST INDIANA

CITY           SKY/WX    TMP DP  RH WIND       PRES   REMARKS
GARY*          RAIN      71  71 100 SW3       30.04R
MICHIGAN CITY* NOT AVBL
RENSSELAER*    NOT AVBL
VALPARAISO     TSTM      70  68  93 NW13      30.04R
$$

LMZ740>746-240600-
SOUTHERN LAKE MICHIGAN

STATION/POSITION TIME  SKY/WX   TEMP WIND        PRES    VSBY
                                AIR  DIR/SP/G
                 (UTC)          (F)  (DEG/KT/KT) (MB)    (MI)
HARRISON CRIB    0400            71  320/ 10/ 11   N/A
BURNHAM HARBOR   0500            71  190/  8       N/A
CALUMET HARBOR   0400            71  160/  5/  9 1015.6
BURNS HARBOR     0502            71  210/ 13     1016.9R
MICHIGAN CITY    0400            75  120/  3/  4   N/A
$$

ABBREVIATIONS USED IN REMARKS
   TC - TEMPERATURE IN CELSIUS
  WCI - WIND CHILL INDEX
   HX - HEAT INDEX
  VSB - VISIBILITY
$$



USA.gov is the U.S. government's official web portal to all federal, state and local government web resources and services.